Starlink 11273

operational
NORAD ID: 60913 Int'l Des: 2024-154 Owner: SPXS Country: US Constellation: starlink
LEOCIRCULAR

Starlink 11273について

説明を読み込み中...

リアルタイム位置

3D地球を読み込み中...

次回通過

高度履歴

Altitude vs Time

uPlot chart will show altitude changes over time

軌道要素

1 60913U 24154L 25257.44066757 -.00000556 00000-0 27177-6 0 9992
2 60913 53.1591 280.0199 0001392 84.4172 275.7005 15.69702102 60820
Epoch: Sep 14, 2025 • Age: 44 hours

現在のステータス

高度 377.4 km
速度 7.68 km/s
衛星直下点 -48.79°S, 57.53°E
打ち上げ日 Aug 31, 2024
運用期間 1 years
タイプ internet

技術仕様

分類 Payload
質量 960.00 kg
乾燥質量 910.00 kg
総質量 960.00 kg
長さ 0.30 m
直径 4.10 m
スパン 29.00 m
形状 Box + pan
製造者 SPXS
バスタイプ Starlink V2MD
フェーズステータス In Orbit
所有者/国 SPXS/US

大規模コンステレーション

Loading constellations...